Tracking 30107 objects as of 25-Jan-2025
HD Live streaming from Space Station
objects crossing your sky now

AL FARABI 2

Track AL FARABI 2 now!
10-day predictions
AL FARABI 2 is classified as:


NORAD ID: 43805
Int'l Code: 2018-099AZ
Perigee: 496.1 km
Apogee: 506.1 km
Inclination: 97.5 °
Period: 94.5 minutes
Semi major axis: 6872 km
RCS: Unknown
Launch date: December 3, 2018
Source: Kazakhstan (KAZ)
Launch site: AIR FORCE WESTERN TEST RANGE (AFWTR)

Uplink (MHz):
Downlink (MHz): 436.500
Beacon (MHz): 436.500
Mode: 4800bps GMSK CW
Call sign: UN1GWA
Status: Inactive

Your satellite tracking list
Your tracking list is empty




NASA's NSSDC Master Catalog

Two Line Element Set (TLE):
1 43805U 18099AZ  25025.14049518  .00032760  00000-0  13521-2 0  9995
2 43805  97.4786  88.8729 0007263 237.2448 122.8090 15.23943465336481
Source of the keplerian elements: AMSAT